Wetterdaten: Sonntag, 24.01.2021
Datum Zeit Temp. Auen Feucht Auen Luftdruck Regen Richtung Richtung Windben
24.01.2021 00:00 -1,5 C 92 % 996,3 hPa 0,0 mm O 82 3,2 km/h (1 Bft)
24.01.2021 00:05 -1,6 C 92 % 996,2 hPa 0,0 mm O 82 3,2 km/h (1 Bft)
24.01.2021 00:10 -1,7 C 92 % 996,2 hPa 0,0 mm O 82 1,6 km/h (1 Bft)
24.01.2021 00:15 -1,8 C 92 % 996,2 hPa 0,0 mm O 82 1,6 km/h (1 Bft)
24.01.2021 00:20 -1,9 C 92 % 996,1 hPa 0,0 mm O 82 0,0 km/h (0 Bft)
24.01.2021 00:25 -1,9 C 92 % 996,0 hPa 0,0 mm O 82 0,0 km/h (0 Bft)
24.01.2021 00:30 -2,0 C 93 % 995,9 hPa 0,0 mm O 82 0,0 km/h (0 Bft)
24.01.2021 00:35 -2,1 C 93 % 995,9 hPa 0,0 mm O 82 0,0 km/h (0 Bft)
24.01.2021 00:40 -2,1 C 92 % 995,9 hPa 0,0 mm O 82 0,0 km/h (0 Bft)
24.01.2021 00:45 -2,2 C 92 % 995,9 hPa 0,0 mm O 82 1,6 km/h (1 Bft)
24.01.2021 00:50 -2,3 C 92 % 995,8 hPa 0,0 mm O 82 0,0 km/h (0 Bft)
24.01.2021 00:55 -2,3 C 93 % 995,8 hPa 0,0 mm O 82 3,2 km/h (1 Bft)
24.01.2021 01:00 -2,4 C 92 % 995,8 hPa 0,0 mm O 82 3,2 km/h (1 Bft)
24.01.2021 01:05 -2,4 C 92 % 995,8 hPa 0,0 mm O 82 3,2 km/h (1 Bft)
24.01.2021 01:10 -2,5 C 92 % 995,8 hPa 0,0 mm O 82 3,2 km/h (1 Bft)
24.01.2021 01:15 -2,6 C 92 % 995,8 hPa 0,0 mm O 82 0,0 km/h (0 Bft)
24.01.2021 01:20 -2,6 C 93 % 995,7 hPa 0,0 mm O 82 0,0 km/h (0 Bft)
24.01.2021 01:25 -2,7 C 93 % 995,8 hPa 0,0 mm O 82 1,6 km/h (1 Bft)
24.01.2021 01:30 -2,7 C 93 % 995,8 hPa 0,0 mm O 82 1,6 km/h (1 Bft)
24.01.2021 01:35 -2,7 C 92 % 995,9 hPa 0,0 mm O 82 3,2 km/h (1 Bft)
24.01.2021 01:40 -2,7 C 92 % 995,9 hPa 0,0 mm O 82 0,0 km/h (0 Bft)
24.01.2021 01:45 -2,8 C 92 % 995,9 hPa 0,0 mm O 82 3,2 km/h (1 Bft)
24.01.2021 01:50 -2,8 C 93 % 995,8 hPa 0,0 mm O 82 3,2 km/h (1 Bft)
24.01.2021 01:55 -2,8 C 93 % 995,8 hPa 0,0 mm O 82 3,2 km/h (1 Bft)
24.01.2021 02:00 -2,8 C 93 % 995,8 hPa 0,0 mm O 82 0,0 km/h (0 Bft)
24.01.2021 02:05 -2,8 C 93 % 995,8 hPa 0,0 mm O 82 4,8 km/h (1 Bft)
24.01.2021 02:10 -2,9 C 93 % 995,7 hPa 0,0 mm O 82 1,6 km/h (1 Bft)
24.01.2021 02:15 -2,9 C 93 % 995,7 hPa 0,0 mm O 82 0,0 km/h (0 Bft)
24.01.2021 02:20 -2,9 C 93 % 995,8 hPa 0,0 mm O 82 1,6 km/h (1 Bft)
24.01.2021 02:25 -2,9 C 93 % 995,8 hPa 0,0 mm O 82 1,6 km/h (1 Bft)
24.01.2021 02:30 -2,9 C 93 % 995,9 hPa 0,0 mm O 82 3,2 km/h (1 Bft)
24.01.2021 02:35 -2,9 C 93 % 995,9 hPa 0,0 mm O 82 4,8 km/h (1 Bft)
24.01.2021 02:40 -2,9 C 93 % 996,0 hPa 0,0 mm O 82 3,2 km/h (1 Bft)
24.01.2021 02:45 -2,9 C 93 % 996,1 hPa 0,0 mm O 82 4,8 km/h (1 Bft)
24.01.2021 02:50 -2,9 C 93 % 996,1 hPa 0,0 mm O 82 4,8 km/h (1 Bft)
24.01.2021 02:55 -2,9 C 93 % 996,1 hPa 0,0 mm O 82 1,6 km/h (1 Bft)
24.01.2021 03:00 -2,9 C 93 % 996,0 hPa 0,0 mm O 82 0,0 km/h (0 Bft)
24.01.2021 03:05 -2,9 C 93 % 996,1 hPa 0,0 mm O 82 3,2 km/h (1 Bft)
24.01.2021 03:10 -2,8 C 93 % 996,2 hPa 0,0 mm O 82 3,2 km/h (1 Bft)
24.01.2021 03:15 -2,8 C 93 % 996,2 hPa 0,0 mm O 82 3,2 km/h (1 Bft)
24.01.2021 03:20 -2,8 C 93 % 996,3 hPa 0,0 mm O 82 3,2 km/h (1 Bft)
24.01.2021 03:25 -2,8 C 93 % 996,4 hPa 0,0 mm O 82 1,6 km/h (1 Bft)
24.01.2021 03:30 -2,7 C 93 % 996,5 hPa 0,0 mm O 82 4,8 km/h (1 Bft)
24.01.2021 03:35 -2,6 C 93 % 996,7 hPa 0,0 mm W 277 6,4 km/h (2 Bft)
24.01.2021 03:40 -2,6 C 93 % 996,7 hPa 0,0 mm W 277 3,2 km/h (1 Bft)
24.01.2021 03:45 -2,4 C 93 % 996,8 hPa 0,0 mm W 277 4,8 km/h (1 Bft)
24.01.2021 03:50 -2,3 C 93 % 996,8 hPa 0,0 mm W 277 4,8 km/h (1 Bft)
24.01.2021 03:55 -2,3 C 93 % 996,8 hPa 0,0 mm W 277 1,6 km/h (1 Bft)
24.01.2021 04:00 -2,2 C 93 % 996,7 hPa 0,0 mm W 277 3,2 km/h (1 Bft)
24.01.2021 04:05 -2,2 C 93 % 996,7 hPa 0,0 mm W 277 1,6 km/h (1 Bft)
24.01.2021 04:10 -2,1 C 93 % 996,7 hPa 0,0 mm W 277 1,6 km/h (1 Bft)
24.01.2021 04:15 -2,1 C 93 % 996,8 hPa 0,0 mm W 277 0,0 km/h (0 Bft)
24.01.2021 04:20 -2,1 C 93 % 997,0 hPa 0,0 mm W 277 0,0 km/h (0 Bft)
24.01.2021 04:25 -2,1 C 93 % 997,0 hPa 0,0 mm W 277 0,0 km/h (0 Bft)
24.01.2021 04:30 -2,1 C 93 % 997,1 hPa 0,0 mm W 277 0,0 km/h (0 Bft)
24.01.2021 04:35 -2,2 C 93 % 997,2 hPa 0,0 mm W 277 1,6 km/h (1 Bft)
24.01.2021 04:40 -2,2 C 93 % 997,2 hPa 0,0 mm W 277 3,2 km/h (1 Bft)
24.01.2021 04:45 -2,3 C 93 % 997,3 hPa 0,0 mm W 277 3,2 km/h (1 Bft)
24.01.2021 04:50 -2,4 C 93 % 997,3 hPa 0,0 mm W 277 3,2 km/h (1 Bft)
24.01.2021 04:55 -2,4 C 93 % 997,2 hPa 0,0 mm W 277 3,2 km/h (1 Bft)
24.01.2021 05:00 -2,5 C 93 % 997,3 hPa 0,0 mm W 277 3,2 km/h (1 Bft)
24.01.2021 05:05 -2,6 C 93 % 997,3 hPa 0,0 mm W 277 4,8 km/h (1 Bft)
24.01.2021 05:10 -2,7 C 93 % 997,3 hPa 0,0 mm W 277 4,8 km/h (1 Bft)
24.01.2021 05:15 -2,8 C 93 % 997,4 hPa 0,0 mm W 277 3,2 km/h (1 Bft)
24.01.2021 05:20 -2,8 C 93 % 997,4 hPa 0,0 mm W 277 3,2 km/h (1 Bft)
24.01.2021 05:25 -2,9 C 93 % 997,4 hPa 0,0 mm W 277 4,8 km/h (1 Bft)
24.01.2021 05:30 -2,9 C 93 % 997,5 hPa 0,0 mm W 277 3,2 km/h (1 Bft)
24.01.2021 05:35 -2,9 C 93 % 997,7 hPa 0,0 mm W 277 3,2 km/h (1 Bft)
24.01.2021 05:40 -2,8 C 93 % 997,7 hPa 0,0 mm W 277 3,2 km/h (1 Bft)
24.01.2021 05:45 -2,8 C 93 % 997,8 hPa 0,0 mm W 277 3,2 km/h (1 Bft)
24.01.2021 05:50 -2,7 C 93 % 997,9 hPa 0,0 mm W 277 3,2 km/h (1 Bft)
24.01.2021 05:55 -2,7 C 93 % 997,9 hPa 0,0 mm W 277 3,2 km/h (1 Bft)
24.01.2021 06:00 -2,6 C 93 % 997,9 hPa 0,0 mm W 277 3,2 km/h (1 Bft)
24.01.2021 06:05 -2,6 C 93 % 998,0 hPa 0,0 mm W 277 3,2 km/h (1 Bft)
24.01.2021 06:10 -2,5 C 93 % 998,1 hPa 0,0 mm W 277 3,2 km/h (1 Bft)
24.01.2021 06:15 -2,4 C 93 % 998,1 hPa 0,0 mm W 277 3,2 km/h (1 Bft)
24.01.2021 06:20 -2,4 C 93 % 998,1 hPa 0,0 mm W 277 0,0 km/h (0 Bft)
24.01.2021 06:25 -2,4 C 93 % 998,1 hPa 0,0 mm W 277 0,0 km/h (0 Bft)
24.01.2021 06:30 -2,3 C 93 % 998,2 hPa 0,0 mm W 277 0,0 km/h (0 Bft)
24.01.2021 06:35 -2,3 C 93 % 998,3 hPa 0,0 mm W 277 0,0 km/h (0 Bft)
24.01.2021 06:40 -2,3 C 93 % 998,3 hPa 0,0 mm W 277 1,6 km/h (1 Bft)
24.01.2021 06:45 -2,3 C 93 % 998,3 hPa 0,0 mm W 277 3,2 km/h (1 Bft)
24.01.2021 06:50 -2,3 C 93 % 998,4 hPa 0,0 mm W 277 4,8 km/h (1 Bft)
24.01.2021 06:55 -2,3 C 93 % 998,4 hPa 0,0 mm W 277 3,2 km/h (1 Bft)
24.01.2021 07:00 -2,3 C 93 % 998,6 hPa 0,0 mm W 277 4,8 km/h (1 Bft)
24.01.2021 07:05 -2,3 C 93 % 998,6 hPa 0,0 mm W 277 4,8 km/h (1 Bft)
24.01.2021 07:10 -2,2 C 93 % 998,6 hPa 0,0 mm W 277 1,6 km/h (1 Bft)
24.01.2021 07:15 -2,2 C 94 % 998,8 hPa 0,0 mm W 277 1,6 km/h (1 Bft)
24.01.2021 07:20 -2,2 C 94 % 999,0 hPa 0,0 mm W 277 4,8 km/h (1 Bft)
24.01.2021 07:25 -2,1 C 94 % 999,0 hPa 0,0 mm W 265 11,3 km/h (2 Bft)
24.01.2021 07:30 -2,0 C 94 % 999,0 hPa 0,0 mm W 276 16,1 km/h (3 Bft)
24.01.2021 07:35 -1,7 C 94 % 999,1 hPa 0,0 mm W 279 20,9 km/h (4 Bft)
24.01.2021 07:40 -1,2 C 94 % 999,1 hPa 0,0 mm W-SW 252 19,3 km/h (3 Bft)
24.01.2021 07:45 -0,8 C 94 % 999,1 hPa 0,0 mm W 278 22,5 km/h (4 Bft)
24.01.2021 07:50 -0,4 C 94 % 999,2 hPa 0,0 mm W 273 20,9 km/h (4 Bft)
24.01.2021 07:55 -0,2 C 94 % 999,2 hPa 0,0 mm W 260 19,3 km/h (3 Bft)
24.01.2021 08:00 0,0 C 94 % 999,4 hPa 0,0 mm W 265 20,9 km/h (4 Bft)
24.01.2021 08:05 0,1 C 94 % 999,5 hPa 0,0 mm W 273 16,1 km/h (3 Bft)
24.01.2021 08:10 0,2 C 94 % 999,6 hPa 0,0 mm W 275 19,3 km/h (3 Bft)
24.01.2021 08:15 0,3 C 94 % 999,8 hPa 0,0 mm W 268 14,5 km/h (3 Bft)
24.01.2021 08:20 0,4 C 94 % 999,9 hPa 0,0 mm W-NW 290 14,5 km/h (3 Bft)
24.01.2021 08:25 0,4 C 94 % 1000,0 hPa 0,0 mm W-SW 255 16,1 km/h (3 Bft)
24.01.2021 08:30 0,5 C 94 % 1000,1 hPa 0,0 mm W-SW 253 17,7 km/h (3 Bft)
24.01.2021 08:35 0,6 C 93 % 1000,1 hPa 0,0 mm W 269 16,1 km/h (3 Bft)
24.01.2021 08:40 0,6 C 93 % 1000,1 hPa 0,0 mm W 277 12,9 km/h (3 Bft)
24.01.2021 08:45 0,7 C 93 % 1000,2 hPa 0,0 mm W 260 12,9 km/h (3 Bft)
24.01.2021 08:50 0,7 C 93 % 1000,3 hPa 0,0 mm W 269 14,5 km/h (3 Bft)
24.01.2021 08:55 0,8 C 93 % 1000,4 hPa 0,0 mm W 271 14,5 km/h (3 Bft)
24.01.2021 09:00 0,8 C 93 % 1000,4 hPa 0,0 mm W 270 17,7 km/h (3 Bft)
24.01.2021 09:05 0,9 C 93 % 1000,4 hPa 0,0 mm W 269 14,5 km/h (3 Bft)
24.01.2021 09:10 1,0 C 93 % 1000,5 hPa 0,0 mm W 259 11,3 km/h (2 Bft)
24.01.2021 09:15 1,0 C 93 % 1000,7 hPa 0,0 mm W 281 12,9 km/h (3 Bft)
24.01.2021 09:20 1,0 C 92 % 1000,7 hPa 0,0 mm W-SW 253 16,1 km/h (3 Bft)
24.01.2021 09:25 1,0 C 92 % 1000,8 hPa 0,0 mm W 270 17,7 km/h (3 Bft)
24.01.2021 09:30 1,0 C 92 % 1000,9 hPa 0,0 mm W 265 12,9 km/h (3 Bft)
24.01.2021 09:35 1,0 C 91 % 1001,1 hPa 0,0 mm W 269 17,7 km/h (3 Bft)
24.01.2021 09:40 1,0 C 91 % 1001,1 hPa 0,0 mm W 270 14,5 km/h (3 Bft)
24.01.2021 09:45 1,1 C 90 % 1001,3 hPa 0,0 mm W 270 16,1 km/h (3 Bft)
24.01.2021 09:50 1,1 C 90 % 1001,2 hPa 0,0 mm W 276 14,5 km/h (3 Bft)
24.01.2021 09:55 1,2 C 89 % 1001,3 hPa 0,0 mm W 271 12,9 km/h (3 Bft)
24.01.2021 10:00 1,2 C 89 % 1001,4 hPa 0,0 mm W 265 12,9 km/h (3 Bft)
24.01.2021 10:05 1,3 C 87 % 1001,4 hPa 0,0 mm W-NW 288 19,3 km/h (3 Bft)
24.01.2021 10:10 1,4 C 84 % 1001,5 hPa 0,0 mm W 269 17,7 km/h (3 Bft)
24.01.2021 10:15 1,5 C 82 % 1001,5 hPa 0,0 mm W 273 24,1 km/h (4 Bft)
24.01.2021 10:20 1,6 C 80 % 1001,7 hPa 0,0 mm W 274 19,3 km/h (3 Bft)
24.01.2021 10:25 1,6 C 79 % 1001,7 hPa 0,0 mm W 265 19,3 km/h (3 Bft)
24.01.2021 10:30 1,6 C 79 % 1001,8 hPa 0,0 mm W-SW 247 14,5 km/h (3 Bft)
24.01.2021 10:35 1,7 C 77 % 1001,8 hPa 0,0 mm W-SW 247 25,7 km/h (4 Bft)
24.01.2021 10:40 2,0 C 76 % 1001,8 hPa 0,0 mm W 272 25,7 km/h (4 Bft)
24.01.2021 10:45 2,3 C 75 % 1001,8 hPa 0,0 mm W 279 20,9 km/h (4 Bft)
24.01.2021 10:50 2,2 C 75 % 1001,9 hPa 0,0 mm W 262 22,5 km/h (4 Bft)
24.01.2021 10:55 2,2 C 74 % 1001,9 hPa 0,0 mm W-NW 289 22,5 km/h (4 Bft)
24.01.2021 11:00 2,5 C 74 % 1001,7 hPa 0,0 mm W 259 22,5 km/h (4 Bft)
24.01.2021 11:05 2,8 C 73 % 1001,9 hPa 0,0 mm W-SW 257 32,2 km/h (5 Bft)
24.01.2021 11:10 2,8 C 72 % 1001,9 hPa 0,0 mm W-SW 245 37,0 km/h (5 Bft)
24.01.2021 11:15 2,6 C 72 % 1002,0 hPa 0,0 mm W 273 24,1 km/h (4 Bft)
24.01.2021 11:20 2,2 C 73 % 1002,2 hPa 0,0 mm W-SW 237 25,7 km/h (4 Bft)
24.01.2021 11:25 1,9 C 73 % 1002,1 hPa 0,0 mm W 273 29,0 km/h (5 Bft)
24.01.2021 11:30 1,7 C 74 % 1002,1 hPa 0,0 mm W-SW 250 25,7 km/h (4 Bft)
24.01.2021 11:35 1,7 C 74 % 1002,0 hPa 0,0 mm W-SW 252 24,1 km/h (4 Bft)
24.01.2021 11:40 1,8 C 74 % 1002,0 hPa 0,0 mm W 267 40,2 km/h (6 Bft)
24.01.2021 11:45 2,0 C 73 % 1002,0 hPa 0,0 mm W 280 37,0 km/h (5 Bft)
24.01.2021 11:50 2,0 C 73 % 1001,9 hPa 0,0 mm W-NW 286 24,1 km/h (4 Bft)
24.01.2021 11:55 1,9 C 73 % 1002,0 hPa 0,0 mm W 277 24,1 km/h (4 Bft)
24.01.2021 12:00 1,8 C 74 % 1001,9 hPa 0,0 mm W-NW 283 24,1 km/h (4 Bft)
24.01.2021 12:05 1,9 C 74 % 1001,9 hPa 0,0 mm W-SW 252 24,1 km/h (4 Bft)
24.01.2021 12:10 1,9 C 73 % 1002,0 hPa 0,0 mm W 276 20,9 km/h (4 Bft)
24.01.2021 12:15 1,7 C 74 % 1002,0 hPa 0,0 mm W 273 27,4 km/h (4 Bft)
24.01.2021 12:20 1,8 C 75 % 1002,0 hPa 0,0 mm W-SW 257 16,1 km/h (3 Bft)
24.01.2021 12:25 1,8 C 74 % 1002,0 hPa 0,0 mm W-SW 247 19,3 km/h (3 Bft)
24.01.2021 12:30 1,8 C 74 % 1002,1 hPa 0,0 mm W 265 27,4 km/h (4 Bft)
24.01.2021 12:35 1,8 C 73 % 1002,0 hPa 0,0 mm W 278 27,4 km/h (4 Bft)
24.01.2021 12:40 1,7 C 74 % 1002,0 hPa 0,0 mm W 265 17,7 km/h (3 Bft)
24.01.2021 12:45 1,7 C 74 % 1001,9 hPa 0,0 mm W 263 24,1 km/h (4 Bft)
24.01.2021 12:50 1,7 C 73 % 1002,0 hPa 0,0 mm W 263 30,6 km/h (5 Bft)
24.01.2021 12:55 1,7 C 73 % 1002,1 hPa 0,0 mm W 276 24,1 km/h (4 Bft)
24.01.2021 13:00 1,6 C 72 % 1002,0 hPa 0,0 mm W-NW 294 30,6 km/h (5 Bft)
24.01.2021 13:05 1,6 C 73 % 1002,1 hPa 0,0 mm W 275 19,3 km/h (3 Bft)
24.01.2021 13:10 1,6 C 73 % 1002,0 hPa 0,0 mm W 264 22,5 km/h (4 Bft)
24.01.2021 13:15 1,7 C 72 % 1002,1 hPa 0,0 mm W 275 24,1 km/h (4 Bft)
24.01.2021 13:20 1,7 C 71 % 1002,1 hPa 0,0 mm W-NW 289 27,4 km/h (4 Bft)
24.01.2021 13:25 1,7 C 71 % 1002,1 hPa 0,0 mm W 265 22,5 km/h (4 Bft)
24.01.2021 13:30 1,7 C 70 % 1002,0 hPa 0,0 mm W 274 30,6 km/h (5 Bft)
24.01.2021 13:35 1,7 C 69 % 1002,0 hPa 0,0 mm W 263 24,1 km/h (4 Bft)
24.01.2021 13:40 1,7 C 68 % 1002,1 hPa 0,0 mm W 269 24,1 km/h (4 Bft)
24.01.2021 13:45 1,7 C 68 % 1002,1 hPa 0,0 mm W 267 24,1 km/h (4 Bft)
24.01.2021 13:50 1,6 C 68 % 1002,2 hPa 0,0 mm W 270 25,7 km/h (4 Bft)
24.01.2021 13:55 1,6 C 68 % 1002,2 hPa 0,0 mm W 265 27,4 km/h (4 Bft)
24.01.2021 14:00 1,6 C 68 % 1002,1 hPa 0,0 mm W 276 20,9 km/h (4 Bft)
24.01.2021 14:05 1,5 C 68 % 1002,1 hPa 0,0 mm W 266 20,9 km/h (4 Bft)
24.01.2021 14:10 1,5 C 69 % 1002,1 hPa 0,0 mm W 273 22,5 km/h (4 Bft)
24.01.2021 14:15 1,4 C 68 % 1002,2 hPa 0,0 mm W 261 25,7 km/h (4 Bft)
24.01.2021 14:20 1,4 C 69 % 1002,2 hPa 0,0 mm W 265 20,9 km/h (4 Bft)
24.01.2021 14:25 1,4 C 68 % 1002,3 hPa 0,0 mm W 270 20,9 km/h (4 Bft)
24.01.2021 14:30 1,4 C 68 % 1002,3 hPa 0,0 mm W 278 24,1 km/h (4 Bft)
24.01.2021 14:35 1,4 C 69 % 1002,4 hPa 0,0 mm W-NW 298 19,3 km/h (3 Bft)
24.01.2021 14:40 1,4 C 69 % 1002,4 hPa 0,0 mm W 277 17,7 km/h (3 Bft)
24.01.2021 14:45 1,4 C 69 % 1002,5 hPa 0,0 mm W 276 17,7 km/h (3 Bft)
24.01.2021 14:50 1,5 C 69 % 1002,5 hPa 0,0 mm W 269 17,7 km/h (3 Bft)
24.01.2021 14:55 1,5 C 68 % 1002,5 hPa 0,0 mm W-SW 253 20,9 km/h (4 Bft)
24.01.2021 15:00 1,4 C 68 % 1002,4 hPa 0,0 mm W 260 20,9 km/h (4 Bft)
24.01.2021 15:05 1,4 C 67 % 1002,4 hPa 0,0 mm W 278 19,3 km/h (3 Bft)
24.01.2021 15:10 1,3 C 67 % 1002,4 hPa 0,0 mm W 267 17,7 km/h (3 Bft)
24.01.2021 15:15 1,3 C 68 % 1002,4 hPa 0,0 mm W 273 14,5 km/h (3 Bft)
24.01.2021 15:20 1,3 C 68 % 1002,4 hPa 0,0 mm W-NW 292 19,3 km/h (3 Bft)
24.01.2021 15:25 1,3 C 68 % 1002,4 hPa 0,0 mm W 271 17,7 km/h (3 Bft)
24.01.2021 15:30 1,2 C 68 % 1002,4 hPa 0,0 mm W 272 17,7 km/h (3 Bft)
24.01.2021 15:35 1,2 C 67 % 1002,4 hPa 0,0 mm W 266 17,7 km/h (3 Bft)
24.01.2021 15:40 1,2 C 68 % 1002,5 hPa 0,0 mm W 265 17,7 km/h (3 Bft)
24.01.2021 15:45 1,1 C 68 % 1002,4 hPa 0,0 mm W 264 12,9 km/h (3 Bft)
24.01.2021 15:50 1,1 C 68 % 1002,4 hPa 0,0 mm W-NW 282 17,7 km/h (3 Bft)
24.01.2021 15:55 1,1 C 68 % 1002,4 hPa 0,0 mm W 259 20,9 km/h (4 Bft)
24.01.2021 16:00 1,1 C 68 % 1002,4 hPa 0,0 mm W 271 14,5 km/h (3 Bft)
24.01.2021 16:05 1,0 C 68 % 1002,5 hPa 0,0 mm W 271 9,7 km/h (2 Bft)
24.01.2021 16:10 1,0 C 68 % 1002,5 hPa 0,0 mm W 273 19,3 km/h (3 Bft)
24.01.2021 16:15 0,9 C 68 % 1002,5 hPa 0,0 mm W-NW 284 14,5 km/h (3 Bft)
24.01.2021 16:20 0,9 C 68 % 1002,4 hPa 0,0 mm W 276 14,5 km/h (3 Bft)
24.01.2021 16:25 0,8 C 68 % 1002,5 hPa 0,0 mm W 263 11,3 km/h (2 Bft)
24.01.2021 16:30 0,8 C 68 % 1002,5 hPa 0,0 mm W 280 9,7 km/h (2 Bft)
24.01.2021 16:35 0,7 C 69 % 1002,5 hPa 0,0 mm W 271 9,7 km/h (2 Bft)
24.01.2021 16:40 0,6 C 69 % 1002,5 hPa 0,0 mm W 271 9,7 km/h (2 Bft)
24.01.2021 16:45 0,6 C 69 % 1002,5 hPa 0,0 mm W 270 9,7 km/h (2 Bft)
24.01.2021 16:50 0,5 C 69 % 1002,6 hPa 0,0 mm W 270 8,0 km/h (2 Bft)
24.01.2021 16:55 0,4 C 70 % 1002,7 hPa 0,0 mm W 270 8,0 km/h (2 Bft)
24.01.2021 17:00 0,3 C 70 % 1002,7 hPa 0,0 mm W 270 8,0 km/h (2 Bft)
24.01.2021 17:05 0,1 C 70 % 1002,7 hPa 0,0 mm W 270 8,0 km/h (2 Bft)
24.01.2021 17:10 0,0 C 70 % 1002,8 hPa 0,0 mm W 269 9,7 km/h (2 Bft)
24.01.2021 17:15 -0,2 C 71 % 1002,8 hPa 0,0 mm W 269 9,7 km/h (2 Bft)
24.01.2021 17:20 -0,3 C 71 % 1002,8 hPa 0,0 mm W 269 11,3 km/h (2 Bft)
24.01.2021 17:25 -0,4 C 71 % 1002,8 hPa 0,0 mm W-SW 258 9,7 km/h (2 Bft)
24.01.2021 17:30 -0,6 C 71 % 1002,8 hPa 0,0 mm W 265 9,7 km/h (2 Bft)
24.01.2021 17:35 -0,7 C 72 % 1002,8 hPa 0,0 mm W 265 9,7 km/h (2 Bft)
24.01.2021 17:40 -0,8 C 72 % 1002,9 hPa 0,0 mm W 265 8,0 km/h (2 Bft)
24.01.2021 17:45 -0,9 C 72 % 1002,9 hPa 0,0 mm W 263 9,7 km/h (2 Bft)
24.01.2021 17:50 -0,9 C 73 % 1003,0 hPa 0,0 mm W 263 9,7 km/h (2 Bft)
24.01.2021 17:55 -1,0 C 73 % 1003,0 hPa 0,0 mm W 264 11,3 km/h (2 Bft)
24.01.2021 18:00 -1,1 C 73 % 1003,0 hPa 0,0 mm W-NW 286 11,3 km/h (2 Bft)
24.01.2021 18:05 -1,2 C 74 % 1003,0 hPa 0,0 mm W 263 9,7 km/h (2 Bft)
24.01.2021 18:10 -1,2 C 74 % 1003,0 hPa 0,0 mm W 267 9,7 km/h (2 Bft)
24.01.2021 18:15 -1,1 C 74 % 1003,1 hPa 0,0 mm W 267 12,9 km/h (3 Bft)
24.01.2021 18:20 -1,1 C 75 % 1003,1 hPa 0,0 mm W 263 11,3 km/h (2 Bft)
24.01.2021 18:25 -1,0 C 75 % 1003,2 hPa 0,0 mm W 264 11,3 km/h (2 Bft)
24.01.2021 18:30 -0,9 C 76 % 1003,3 hPa 0,0 mm W 264 12,9 km/h (3 Bft)
24.01.2021 18:35 -0,8 C 76 % 1003,3 hPa 0,0 mm W 275 14,5 km/h (3 Bft)
24.01.2021 18:40 -0,7 C 76 % 1003,4 hPa 0,0 mm W-SW 255 14,5 km/h (3 Bft)
24.01.2021 18:45 -0,6 C 76 % 1003,5 hPa 0,0 mm W 262 17,7 km/h (3 Bft)
24.01.2021 18:50 -0,5 C 75 % 1003,5 hPa 0,0 mm W 279 16,1 km/h (3 Bft)
24.01.2021 18:55 -0,4 C 75 % 1003,5 hPa 0,0 mm W 272 17,7 km/h (3 Bft)
24.01.2021 19:00 -0,3 C 74 % 1003,5 hPa 0,0 mm W 266 17,7 km/h (3 Bft)
24.01.2021 19:05 -0,2 C 74 % 1003,6 hPa 0,0 mm W 279 14,5 km/h (3 Bft)
24.01.2021 19:10 -0,2 C 74 % 1003,7 hPa 0,0 mm W 263 12,9 km/h (3 Bft)
24.01.2021 19:15 -0,1 C 74 % 1003,7 hPa 0,0 mm W 265 19,3 km/h (3 Bft)
24.01.2021 19:20 0,0 C 73 % 1003,7 hPa 0,0 mm W-NW 283 19,3 km/h (3 Bft)
24.01.2021 19:25 0,1 C 73 % 1003,6 hPa 0,0 mm W 269 17,7 km/h (3 Bft)
24.01.2021 19:30 0,1 C 73 % 1003,6 hPa 0,0 mm W-NW 293 19,3 km/h (3 Bft)
24.01.2021 19:35 0,1 C 73 % 1003,5 hPa 0,0 mm W 264 20,9 km/h (4 Bft)
24.01.2021 19:40 0,1 C 73 % 1003,6 hPa 0,0 mm W 259 17,7 km/h (3 Bft)
24.01.2021 19:45 0,2 C 73 % 1003,5 hPa 0,0 mm W-SW 258 16,1 km/h (3 Bft)
24.01.2021 19:50 0,2 C 73 % 1003,5 hPa 0,0 mm W 268 11,3 km/h (2 Bft)
24.01.2021 19:55 0,2 C 73 % 1003,6 hPa 0,0 mm W-NW 291 17,7 km/h (3 Bft)
24.01.2021 20:00 0,1 C 73 % 1003,6 hPa 0,0 mm W 277 22,5 km/h (4 Bft)
24.01.2021 20:05 0,1 C 73 % 1003,7 hPa 0,0 mm W 270 22,5 km/h (4 Bft)
24.01.2021 20:10 0,2 C 73 % 1003,6 hPa 0,0 mm W 271 19,3 km/h (3 Bft)
24.01.2021 20:15 0,2 C 73 % 1003,7 hPa 0,0 mm W 277 17,7 km/h (3 Bft)
24.01.2021 20:20 0,2 C 73 % 1003,7 hPa 0,0 mm W-SW 244 20,9 km/h (4 Bft)
24.01.2021 20:25 0,2 C 73 % 1003,7 hPa 0,0 mm W 271 17,7 km/h (3 Bft)
24.01.2021 20:30 0,1 C 73 % 1003,6 hPa 0,0 mm W-SW 252 20,9 km/h (4 Bft)
24.01.2021 20:35 0,2 C 73 % 1003,6 hPa 0,0 mm W 269 32,2 km/h (5 Bft)
24.01.2021 20:40 0,1 C 73 % 1003,6 hPa 0,0 mm W-SW 257 17,7 km/h (3 Bft)
24.01.2021 20:45 0,1 C 73 % 1003,6 hPa 0,0 mm W-NW 282 22,5 km/h (4 Bft)
24.01.2021 20:50 0,1 C 73 % 1003,7 hPa 0,0 mm W-SW 257 16,1 km/h (3 Bft)
24.01.2021 20:55 0,1 C 73 % 1003,7 hPa 0,0 mm W 269 22,5 km/h (4 Bft)
24.01.2021 21:00 0,1 C 73 % 1003,8 hPa 0,0 mm W 269 14,5 km/h (3 Bft)
24.01.2021 21:05 0,1 C 73 % 1003,9 hPa 0,0 mm W 281 11,3 km/h (2 Bft)
24.01.2021 21:10 0,1 C 72 % 1003,9 hPa 0,0 mm W-NW 293 16,1 km/h (3 Bft)
24.01.2021 21:15 0,1 C 72 % 1004,0 hPa 0,0 mm W 275 16,1 km/h (3 Bft)
24.01.2021 21:20 0,1 C 72 % 1004,0 hPa 0,0 mm W 267 9,7 km/h (2 Bft)
24.01.2021 21:25 0,1 C 73 % 1003,9 hPa 0,0 mm W 267 8,0 km/h (2 Bft)
24.01.2021 21:30 0,1 C 73 % 1003,9 hPa 0,0 mm W 274 12,9 km/h (3 Bft)
24.01.2021 21:35 0,1 C 73 % 1003,9 hPa 0,0 mm W 267 14,5 km/h (3 Bft)
24.01.2021 21:40 0,1 C 73 % 1003,9 hPa 0,0 mm W 269 14,5 km/h (3 Bft)
24.01.2021 21:45 0,1 C 73 % 1003,9 hPa 0,0 mm W 265 14,5 km/h (3 Bft)
24.01.2021 21:50 0,0 C 72 % 1003,9 hPa 0,0 mm W 267 12,9 km/h (3 Bft)
24.01.2021 21:55 0,0 C 72 % 1003,9 hPa 0,0 mm W 263 9,7 km/h (2 Bft)
24.01.2021 22:00 0,0 C 72 % 1003,9 hPa 0,0 mm W 262 14,5 km/h (3 Bft)
24.01.2021 22:05 0,0 C 72 % 1004,0 hPa 0,0 mm W 265 11,3 km/h (2 Bft)
24.01.2021 22:10 -0,1 C 73 % 1003,9 hPa 0,0 mm W 268 12,9 km/h (3 Bft)
24.01.2021 22:15 -0,1 C 73 % 1003,8 hPa 0,0 mm W-NW 295 12,9 km/h (3 Bft)
24.01.2021 22:20 -0,1 C 72 % 1003,9 hPa 0,0 mm W 273 16,1 km/h (3 Bft)
24.01.2021 22:25 -0,1 C 72 % 1003,8 hPa 0,0 mm W 276 14,5 km/h (3 Bft)
24.01.2021 22:30 -0,1 C 73 % 1003,8 hPa 0,0 mm W 274 9,7 km/h (2 Bft)
24.01.2021 22:35 -0,1 C 73 % 1003,8 hPa 0,0 mm W 270 12,9 km/h (3 Bft)
24.01.2021 22:40 -0,1 C 73 % 1003,7 hPa 0,0 mm W 259 12,9 km/h (3 Bft)
24.01.2021 22:45 -0,2 C 73 % 1003,7 hPa 0,0 mm W 273 12,9 km/h (3 Bft)
24.01.2021 22:50 -0,2 C 73 % 1003,7 hPa 0,0 mm W 279 12,9 km/h (3 Bft)
24.01.2021 22:55 -0,2 C 73 % 1003,7 hPa 0,0 mm W 272 11,3 km/h (2 Bft)
24.01.2021 23:00 -0,2 C 73 % 1003,7 hPa 0,0 mm W 264 17,7 km/h (3 Bft)
24.01.2021 23:05 -0,3 C 73 % 1003,8 hPa 0,0 mm W 263 14,5 km/h (3 Bft)
24.01.2021 23:10 -0,3 C 73 % 1003,7 hPa 0,0 mm W 265 9,7 km/h (2 Bft)
24.01.2021 23:15 -0,3 C 73 % 1003,8 hPa 0,0 mm W 265 9,7 km/h (2 Bft)
24.01.2021 23:20 -0,4 C 73 % 1003,8 hPa 0,0 mm W 272 11,3 km/h (2 Bft)
24.01.2021 23:25 -0,4 C 73 % 1003,7 hPa 0,0 mm W 272 8,0 km/h (2 Bft)
24.01.2021 23:30 -0,5 C 74 % 1003,7 hPa 0,0 mm W 272 8,0 km/h (2 Bft)
24.01.2021 23:35 -0,6 C 73 % 1003,7 hPa 0,0 mm W 272 9,7 km/h (2 Bft)
24.01.2021 23:40 -0,6 C 73 % 1003,7 hPa 0,0 mm W 271 11,3 km/h (2 Bft)
24.01.2021 23:45 -0,7 C 73 % 1003,7 hPa 0,0 mm W 271 9,7 km/h (2 Bft)
24.01.2021 23:50 -0,8 C 74 % 1003,6 hPa 0,0 mm W 271 8,0 km/h (2 Bft)
24.01.2021 23:55 -0,8 C 74 % 1003,6 hPa 0,0 mm W 270 8,0 km/h (2 Bft)
_ Min-Zeit 02:05 15:05 01:20 - - - 00:20
Minimum _ -2,9 C 67 % 995,7 hPa - - - 0,0 km/h (0 Bft)
_ Max-Zeit 11:05 07:15 21:15 00:00 - - 11:40
Maximum _ 2,8 C 94 % 1004,0 hPa 0,0 mm - - 40,2 km/h
W (6 Bft)
Durchschnitt _ -0,4 C 81 % 1000,7 hPa #0,0 mm W - 12,7 km/h (3 Bft)